Regional Weather Roundup
Issued by NWS

Home | Current Version | Previous Version | Text Only | Print | Product List | Glossary Off
Versions: 1 2 3 4 5 6 7 8 9 10 11 12 13 14 15 16 17 18 19 20 21 22 23 24 25 26 27 28 29 30 31 32 33 34 35 36 37 38 39 40 41 42 43 44 45 46 47 48 49 50

000
ASUS43 KOAX 191810
RWRNE

WEATHER ROUNDUP FOR NEBRASKA
NATIONAL WEATHER SERVICE OMAHA NE
1200 PM CST FRI DEC 19 2014

NOTES: SATELLITE DATA IS BEING USED TO AUGMENT CLOUD COVER ABOVE
       12000 FEET.
       "FAIR" INDICATES FEW OR NO CLOUDS BELOW 12,000 FEET WITH NO
       SIGNIFICANT WEATHER AND/OR OBSTRUCTIONS TO VISIBILITY.

  * THESE STATIONS DO NOT REPORT WEATHER SUCH AS RAIN...SNOW OR FOG.

NEZ001>004-019>022-054>056-191900-
NEBRASKA PANHANDLE

CITY           SKY/WX    TMP DP  RH WIND       PRES   REMARKS
SCOTTSBLUFF    SUNNY     24  22  91 CALM      30.04F
6HR MIN TEMP:   2; 6HR MAX TEMP:  24;

ALLIANCE       SUNNY     28  20  71 W3        30.00F
6HR MIN TEMP:   2; 6HR MAX TEMP:  28;

CHADRON        SUNNY     35  21  56 SW9       30.01F WCI  28
6HR MIN TEMP:   5; 6HR MAX TEMP:  35;

KIMBALL        SUNNY     41  20  44 W23       30.02F
SIDNEY         SUNNY     39  23  52 W17       30.04F WCI  30
6HR MIN TEMP:  13; 6HR MAX TEMP:  39;

$$

NEZ057>060-069>072-079>082-191900-
SOUTHWEST NEBRASKA

CITY           SKY/WX    TMP DP  RH WIND       PRES   REMARKS
NORTH PLATTE   SUNNY     32  24  72 W8        30.06F WCI  25
6HR MIN TEMP:  12; 6HR MAX TEMP:  32;

IMPERIAL       SUNNY     35  27  72 W8        30.08F WCI  29
6HR MIN TEMP:  11; 6HR MAX TEMP:  35;

LEXINGTON      SUNNY     29  28  96 SE6       30.10F WCI  23
MCCOOK         SUNNY     31  28  89 SW3       30.10F
6HR MIN TEMP:  13; 6HR MAX TEMP:  31;

OGALLALA       SUNNY     29  23  79 W6        30.07F WCI  23
$$

NEZ005>010-023>029-035>040-094-191900-
NORTH CENTRAL NEBRASKA

CITY           SKY/WX    TMP DP  RH WIND       PRES   REMARKS
VALENTINE      SUNNY     31  23  72 SW9       30.01F WCI  23
6HR MIN TEMP:  10; 6HR MAX TEMP:  31;

AINSWORTH      SUNNY     30  23  77 SW7       30.01F WCI  23
BROKEN BOW     SUNNY     30  26  85 SE8       30.06F WCI  22
6HR MIN TEMP:  22; 6HR MAX TEMP:  30;

O`NEILL        CLOUDY    27  27 100 S7        30.07F FOG     WCI  20
THEDFORD       SUNNY     36  26  68 SW3       30.03F
$$

NEZ041-046>049-061>064-073>077-083>087-191900-
SOUTH CENTRAL NEBRASKA

CITY           SKY/WX    TMP DP  RH WIND       PRES   REMARKS
GRAND ISLAND   CLOUDY    30  27  88 S13       30.15F FOG     WCI  20
6HR MIN TEMP:  30; 6HR MAX TEMP:  31;

AURORA         CLOUDY    33  31  92 SW12      30.15F WCI  24
HASTINGS       CLOUDY    32  28  85 SW12      30.14F WCI  23
6HR MIN TEMP:  29; 6HR MAX TEMP:  32;

HEBRON         CLOUDY    32  29  88 S9        30.20F FOG     WCI  25
HOLDREGE       FOG       28  26  96 SW8       30.12F VSB 1/2 WCI  19
KEARNEY *      CLOUDY    28  27  93 S10       30.13F WCI  19
YORK           CLOUDY    32  28  86 S12       30.16F WCI  23
$$

NEZ011>018-030>034-042>045-191900-
NORTHEAST NEBRASKA

CITY           SKY/WX    TMP DP  RH WIND       PRES   REMARKS
NORFOLK        CLOUDY    32  28  85 S12       30.13F WCI  23
6HR MIN TEMP:  29; 6HR MAX TEMP:  32;

ALBION         CLOUDY    29  27  90 S10       30.13F FOG     WCI  20
BLAIR          CLOUDY    33  30  88 S8        30.19F FOG     WCI  26
COLUMBUS *     CLOUDY    32  25  74 S13       30.17F WCI  22
FREMONT        CLOUDY    34  29  83 S10       30.19F WCI  26
TEKAMAH        CLOUDY    34  30  85 S13       30.20F FOG     WCI  25
6HR MIN TEMP:  31; 6HR MAX TEMP:  34;

WAYNE          CLOUDY    32  28  86 S14       30.15F WCI  22
$$

NEZ050>053-065>068-078-088>093-191900-
SOUTHEAST NEBRASKA

CITY           SKY/WX    TMP DP  RH WIND       PRES   REMARKS
LINCOLN        CLOUDY    34  28  79 S9        30.21F WCI  27
6HR MIN TEMP:  31; 6HR MAX TEMP:  34;

OMAHA EPPLEY   CLOUDY    34  29  82 S9        30.22F HAZE    WCI  27
6HR MIN TEMP:  31; 6HR MAX TEMP:  34;

BEATRICE       CLOUDY    32  29  90 S10       30.21F WCI  24
FALLS CITY     CLOUDY    29  25  85 S10       30.26F WCI  20
6HR MIN TEMP:  28; 6HR MAX TEMP:  30;

NEBRASKA CITY  CLOUDY    32  30  94 S8        30.23F WCI  24
PLATTSMOUTH    CLOUDY    32  28  88 S10       30.21F FOG     WCI  23
$$

NEZ044-045-051>053-067-191900-
OMAHA AREA

CITY           SKY/WX    TMP DP  RH WIND       PRES   REMARKS
OMAHA EPPLEY   CLOUDY    34  29  82 S9        30.22F HAZE    WCI  27
6HR MIN TEMP:  31; 6HR MAX TEMP:  34;

BLAIR          CLOUDY    33  30  88 S8        30.19F FOG     WCI  26
FREMONT        CLOUDY    34  29  83 S10       30.19F WCI  26
MILLARD        CLOUDY    33  30  86 S6        30.21F FOG     WCI  28
OFFUTT AFB     CLOUDY    33  29  88 S7        30.21F WCI  26
PLATTSMOUTH    CLOUDY    32  28  88 S10       30.21F FOG     WCI  23
WAHOO          CLOUDY    33  29  83 S10       30.19F WCI  25
$$


USA.gov is the U.S. government's official web portal to all federal, state and local government web resources and services.